Flag for U.S.A. Weather past 2 weeks in Billings, Montana, U.S.A.

Now
4 °F

Clear.


Feels Like: -3 °F
Forecast: 8 / 30 °F
Wind: 3 mph from Northeast

Location: Billings Logan International Airport

Current Time: Feb 27, 2015 at 12:44:34 AM

Latest Report: Feb 26, 2015 at 11:53 PM


Visibility: 10 mi

Pressure: 30.33 "Hg

Humidity: 80%

Dew point: -1 °F

Location of BillingsLocation

Historic Weather in Billings — Graph

°F

Billings temperature yesterday

Maximum temperature yesterday: 14 °F (at 2:53 PM)
Minimum temperature yesterday: 5 °F (at 10:53 PM)
Average temperature yesterday: 9 °F

Past Weeks' High & Low Weather Summary

 TemperatureHumidityPressure
High64 °F (Feb 12, 12:53 PM)97% (Feb 15, 1:53 AM)30.68 "Hg (Feb 15, 1:53 AM)
Low5 °F (Feb 23, 12:53 AM)15% (Feb 19, 11:53 AM)29.87 "Hg (Feb 19, 11:53 PM)
Average32 °F62%30.24 "Hg
* Reported Feb 11 10:53 PM — Feb 26 10:53 PM, Billings, Weather by CustomWeather, © 2015

Note: Actual official high and low records may vary slightly from our data, if they occured in-between our weather recording intervals... More about our weather records

Advertising

Billings weather history for previous 24 hours

 ConditionsComfort  
Time TempWeatherWind HumidityBarometerVisibility
10:53 PM
Thu, Feb 26
5 °FClear.No wind76%30.37 "Hg10 mi
9:53 PM6 °FClear.5 mph73%30.40 "Hg10 mi
8:53 PM8 °FClear.5 mph69%30.42 "Hg10 mi
7:53 PM9 °FClear.8 mph66%30.45 "Hg10 mi
6:53 PM10 °FPassing clouds.8 mph67%30.46 "Hg10 mi
5:53 PM11 °FPassing clouds.10 mph61%30.47 "Hg10 mi
4:53 PM13 °FScattered clouds.13 mph56%30.47 "Hg10 mi
3:53 PM14 °FScattered clouds.12 mph56%30.47 "Hg10 mi
2:53 PM14 °FScattered clouds.8 mph56%30.49 "Hg10 mi
1:53 PM13 °FScattered clouds.6 mph61%30.51 "Hg10 mi
12:53 PM11 °FPartly sunny.10 mph67%30.54 "Hg10 mi
11:53 AM13 °FScattered clouds.9 mph61%30.56 "Hg10 mi
10:53 AM10 °FPartly sunny.10 mph67%30.58 "Hg10 mi
9:53 AM9 °FBroken clouds.10 mph70%30.59 "Hg10 mi
8:53 AM8 °FMore clouds than sun.9 mph72%30.59 "Hg10 mi
8:04 AM8 °FMostly cloudy.9 mph79%30.38 "Hg10 mi
7:53 AM7 °FOvercast.9 mph79%30.58 "Hg10 mi
6:53 AM7 °FOvercast.10 mph79%30.56 "Hg10 mi
5:53 AM7 °FLight snow. Ice fog.13 mph87%30.56 "Hg4 mi
4:53 AM7 °FLight snow. Ice fog.14 mph87%30.55 "Hg1 mi
3:53 AM9 °FLight snow. Ice fog.10 mph84%30.54 "Hg3 mi
3:02 AM9 °FLight snow. Ice fog.10 mph88%30.35 "Hg5 mi
1:59 AM10 °FLight snow. Ice fog.12 mph84%30.36 "Hg2 mi
12:53 AM10 °FLight snow. Partly cloudy.8 mph88%30.53 "Hg8 mi
Weather by CustomWeather, © 2015

See weather overviewHow to use our weather pages